Menu Close Menu
Station Historical Data
Daily Summary for October 21, 2017 Units:  Metric    English   Both
« Previous Day
Next Day »
Daily Weekly Monthly Yearly Custom
  High: Low: Average:
Temperature: 23.5 °C 10.3 °C 16.4 °C
Dew Point: 14.7 °C 8.3 °C 11.3 °C
Humidity: 88% 50% 73%
Wind Speed: 18.5km/h 3.7km/h 10.3km/h
Wind Gust: 18.5km/h - -
Wind- - ESE
Pressure: 1027 hPa 1023.9 hPa -
Precipitation: 0 mm    
Historical Graphs
 
 
Tabular Data for October 21, 2017
Time Temperature Dew Point Pressure Wind Wind Speed Wind Gust Humidity Rainfall Rate (Hourly) solar Conditions
00:02 12.5 °C 9.9 °C 1024.3 hPa SE 11.1 km/h 11.1 km/h 84% 0 mm WeatherDisplay:10.37 W/m2 CLR
00:07 12.4 °C 9.8 °C 1024.3 hPa SE 11.1 km/h 11.1 km/h 84% 0 mm WeatherDisplay:10.37 W/m2 CLR
00:12 12.4 °C 9.8 °C 1024.3 hPa SE 11.1 km/h 11.1 km/h 84% 0 mm WeatherDisplay:10.37 W/m2 CLR
00:17 12.3 °C 9.9 °C 1024.3 hPa SE 11.1 km/h 11.1 km/h 85% 0 mm WeatherDisplay:10.37 W/m2 CLR
00:22 12.3 °C 9.9 °C 1024.3 hPa SE 11.1 km/h 11.1 km/h 85% 0 mm WeatherDisplay:10.37 W/m2 CLR
00:27 12.3 °C 9.9 °C 1024.3 hPa SE 11.1 km/h 11.1 km/h 85% 0 mm WeatherDisplay:10.37 W/m2 CLR
00:32 12.3 °C 9.9 °C 1024.3 hPa SE 11.1 km/h 11.1 km/h 85% 0 mm WeatherDisplay:10.37 W/m2 CLR
00:37 12.6 °C 10.1 °C 1023.9 hPa SE 11.1 km/h 11.1 km/h 85% 0 mm WeatherDisplay:10.37 W/m2 CLR
00:42 12.6 °C 9.9 °C 1023.9 hPa SE 11.1 km/h 11.1 km/h 84% 0 mm WeatherDisplay:10.37 W/m2 CLR
00:47 12.5 °C 9.7 °C 1023.9 hPa SE 11.1 km/h 11.1 km/h 83% 0 mm WeatherDisplay:10.37 W/m2 CLR
00:52 12.4 °C 9.8 °C 1024.3 hPa SE 11.1 km/h 11.1 km/h 84% 0 mm WeatherDisplay:10.37 W/m2 CLR
00:57 12.3 °C 9.7 °C 1024.3 hPa SE 11.1 km/h 11.1 km/h 84% 0 mm WeatherDisplay:10.37 W/m2 CLR
01:02 12.3 °C 9.7 °C 1024.3 hPa SE 11.1 km/h 11.1 km/h 84% 0 mm WeatherDisplay:10.37 W/m2 CLR
01:07 12.3 °C 9.8 °C 1024.3 hPa SE 11.1 km/h 11.1 km/h 85% 0 mm WeatherDisplay:10.37 W/m2 CLR
01:18 12.2 °C 9.8 °C 1024.3 hPa SE 11.1 km/h 11.1 km/h 85% 0 mm WeatherDisplay:10.37 W/m2 CLR
01:23 12.2 °C 9.7 °C 1024.3 hPa SE 11.1 km/h 11.1 km/h 85% 0 mm WeatherDisplay:10.37 W/m2 CLR
01:28 12.2 °C 9.6 °C 1024.3 hPa SE 11.1 km/h 11.1 km/h 84% 0 mm WeatherDisplay:10.37 W/m2 CLR
01:33 12.2 °C 9.6 °C 1024.3 hPa SE 11.1 km/h 11.1 km/h 84% 0 mm WeatherDisplay:10.37 W/m2 CLR
01:38 12.2 °C 9.4 °C 1024.3 hPa SE 11.1 km/h 11.1 km/h 83% 0 mm WeatherDisplay:10.37 W/m2 CLR
01:43 12.2 °C 9.6 °C 1024.3 hPa SE 11.1 km/h 11.1 km/h 84% 0 mm WeatherDisplay:10.37 W/m2 CLR
01:48 12.2 °C 9.6 °C 1024.3 hPa SE 11.1 km/h 11.1 km/h 84% 0 mm WeatherDisplay:10.37 W/m2 CLR
01:53 12.2 °C 9.6 °C 1024.3 hPa SE 11.1 km/h 11.1 km/h 84% 0 mm WeatherDisplay:10.37 W/m2 CLR
01:58 12.1 °C 9.5 °C 1024.3 hPa SE 11.1 km/h 11.1 km/h 84% 0 mm WeatherDisplay:10.37 W/m2 CLR
02:03 12.1 °C 9.7 °C 1024.3 hPa SE 11.1 km/h 11.1 km/h 85% 0 mm WeatherDisplay:10.37 W/m2 CLR
02:08 12.1 °C 9.7 °C 1024.3 hPa SE 11.1 km/h 11.1 km/h 85% 0 mm WeatherDisplay:10.37 W/m2 CLR
02:13 12.1 °C 9.6 °C 1024.3 hPa SE 11.1 km/h 11.1 km/h 85% 0 mm WeatherDisplay:10.37 W/m2 CLR
02:18 12 °C 9.6 °C 1024.3 hPa SE 11.1 km/h 11.1 km/h 85% 0 mm WeatherDisplay:10.37 W/m2 CLR
02:23 12.1 °C 9.4 °C 1024.3 hPa SE 11.1 km/h 11.1 km/h 84% 0 mm WeatherDisplay:10.37 W/m2 CLR
02:28 12.1 °C 9.6 °C 1024.3 hPa SE 11.1 km/h 11.1 km/h 85% 0 mm WeatherDisplay:10.37 W/m2 CLR
02:33 12.1 °C 9.4 °C 1024.3 hPa SE 11.1 km/h 11.1 km/h 84% 0 mm WeatherDisplay:10.37 W/m2 CLR
02:38 11.8 °C 9.2 °C 1024.3 hPa SE 11.1 km/h 11.1 km/h 84% 0 mm WeatherDisplay:10.37 W/m2 CLR
02:43 11.7 °C 9.2 °C 1024.3 hPa SE 11.1 km/h 11.1 km/h 85% 0 mm WeatherDisplay:10.37 W/m2 CLR
02:48 11.6 °C 9.2 °C 1024.3 hPa SE 11.1 km/h 11.1 km/h 85% 0 mm WeatherDisplay:10.37 W/m2 CLR
02:53 11.6 °C 9.3 °C 1024.3 hPa SE 11.1 km/h 11.1 km/h 86% 0 mm WeatherDisplay:10.37 W/m2 CLR
02:58 11.6 °C 9.3 °C 1024.3 hPa SE 11.1 km/h 11.1 km/h 86% 0 mm WeatherDisplay:10.37 W/m2 CLR
03:03 11.6 °C 9.1 °C 1024.3 hPa SE 11.1 km/h 11.1 km/h 85% 0 mm WeatherDisplay:10.37 W/m2 CLR
03:09 11.6 °C 9 °C 1024.3 hPa SE 11.1 km/h 11.1 km/h 84% 0 mm WeatherDisplay:10.37 W/m2 CLR
03:14 11.8 °C 9 °C 1024.3 hPa SE 11.1 km/h 11.1 km/h 83% 0 mm WeatherDisplay:10.37 W/m2 CLR
03:20 12 °C 9.2 °C 1024.3 hPa SE 11.1 km/h 11.1 km/h 83% 0 mm WeatherDisplay:10.37 W/m2 CLR
03:25 12.1 °C 9.1 °C 1024.3 hPa SE 11.1 km/h   82% 0 mm WeatherDisplay:10.37 W/m2 CLR
03:30 12.1 °C 9.3 °C 1024.3 hPa SE 11.3 km/h 11.3 km/h 83% 0 mm WeatherDisplay:10.37 W/m2 CLR
03:35 12 °C 9.2 °C 1024.3 hPa SE 11.3 km/h 11.3 km/h 83% 0 mm WeatherDisplay:10.37 W/m2 CLR
03:40 11.9 °C 9.1 °C 1024.3 hPa SE 11.3 km/h 11.3 km/h 83% 0 mm WeatherDisplay:10.37 W/m2 CLR
03:45 11.9 °C 9.3 °C 1024.3 hPa SE 11.3 km/h 11.3 km/h 84% 0 mm WeatherDisplay:10.37 W/m2 CLR
03:50 11.8 °C 9.2 °C 1024.3 hPa SE 11.3 km/h 11.3 km/h 84% 0 mm WeatherDisplay:10.37 W/m2 CLR
03:55 11.6 °C 8.9 °C 1024.6 hPa SE 11.3 km/h 11.3 km/h 84% 0 mm WeatherDisplay:10.37 W/m2 CLR
04:00 11.4 °C 9 °C 1024.3 hPa SE 11.3 km/h 11.3 km/h 85% 0 mm WeatherDisplay:10.37 W/m2 CLR
04:05 11.3 °C 9.1 °C 1024.3 hPa SE 11.3 km/h 11.3 km/h 86% 0 mm WeatherDisplay:10.37 W/m2 CLR
04:10 11.3 °C 9 °C 1024.3 hPa SE 11.1 km/h 11.1 km/h 86% 0 mm WeatherDisplay:10.37 W/m2 CLR
04:15 11.1 °C 8.8 °C 1024.3 hPa SE 11.1 km/h   86% 0 mm WeatherDisplay:10.37 W/m2 CLR
04:20 11 °C 8.7 °C 1024.3 hPa SE 11.1 km/h 11.1 km/h 86% 0 mm WeatherDisplay:10.37 W/m2 CLR
04:25 10.9 °C 8.9 °C 1024.3 hPa SE 11.3 km/h 11.3 km/h 87% 0 mm WeatherDisplay:10.37 W/m2 CLR
04:30 10.8 °C 8.8 °C 1024.3 hPa SE 11.3 km/h 11.3 km/h 87% 0 mm WeatherDisplay:10.37 W/m2 CLR
04:35 10.8 °C 8.8 °C 1024.3 hPa SE 11.1 km/h   87% 0 mm WeatherDisplay:10.37 W/m2 CLR
04:40 10.8 °C 8.9 °C 1024.3 hPa SE 11.1 km/h 11.1 km/h 88% 0 mm WeatherDisplay:10.37 W/m2 CLR
04:45 10.8 °C 8.9 °C 1024.3 hPa SE 11.1 km/h 11.1 km/h 88% 0 mm WeatherDisplay:10.37 W/m2 CLR
04:50 10.8 °C 8.9 °C 1024.3 hPa SE 11.1 km/h 11.1 km/h 88% 0 mm WeatherDisplay:10.37 W/m2 CLR
04:51 10.8 °C 8.9 °C 1024.3 hPa SE 11.1 km/h 11.1 km/h 88% 0 mm WeatherDisplay:10.37 W/m2 CLR
04:56 10.8 °C 8.9 °C 1024.3 hPa SE 11.1 km/h 11.1 km/h 88% 0 mm WeatherDisplay:10.37 W/m2 CLR
05:01 10.9 °C 9 °C 1024.3 hPa SE 11.1 km/h 11.1 km/h 88% 0 mm WeatherDisplay:10.37 W/m2 CLR
05:06 10.9 °C 9 °C 1024.3 hPa SE 11.1 km/h 11.1 km/h 88% 0 mm WeatherDisplay:10.37 W/m2 CLR
05:11 10.9 °C 8.9 °C 1024.3 hPa SE 11.1 km/h 11.1 km/h 87% 0 mm WeatherDisplay:10.37 W/m2 CLR
05:16 11 °C 8.7 °C 1024.6 hPa SE 11.1 km/h 11.1 km/h 86% 0 mm WeatherDisplay:10.37 W/m2 CLR
05:21 11.2 °C 8.9 °C 1024.6 hPa SE 11.1 km/h 11.1 km/h 86% 0 mm WeatherDisplay:10.37 W/m2 CLR
05:26 11.2 °C 8.9 °C 1024.6 hPa SE 11.1 km/h 11.1 km/h 86% 0 mm WeatherDisplay:10.37 W/m2 CLR
05:31 11.2 °C 8.9 °C 1024.6 hPa SE 11.1 km/h 11.1 km/h 86% 0 mm WeatherDisplay:10.37 W/m2 CLR
05:36 11.2 °C 8.9 °C 1024.6 hPa SE 11.1 km/h 11.1 km/h 86% 0 mm WeatherDisplay:10.37 W/m2 CLR
05:41 11.2 °C 8.9 °C 1024.6 hPa SE 11.1 km/h 11.1 km/h 86% 0 mm WeatherDisplay:10.37 W/m2 CLR
05:46 11.1 °C 8.8 °C 1024.9 hPa SE 11.1 km/h 11.1 km/h 86% 0 mm WeatherDisplay:10.37 W/m2 CLR
05:51 11.1 °C 8.8 °C 1024.9 hPa SE 11.1 km/h 11.1 km/h 86% 0 mm WeatherDisplay:10.37 W/m2 CLR
05:56 11.1 °C 9.1 °C 1024.9 hPa SE 11.1 km/h 11.1 km/h 87% 0 mm WeatherDisplay:10.37 W/m2 CLR
06:01 11.1 °C 8.8 °C 1024.9 hPa SE 11.1 km/h 11.1 km/h 86% 0 mm WeatherDisplay:10.37 W/m2 CLR
06:06 11 °C 8.7 °C 1025.3 hPa SE 11.1 km/h 11.1 km/h 86% 0 mm WeatherDisplay:10.37 W/m2 CLR
06:11 11.1 °C 8.6 °C 1025.3 hPa SE 11.1 km/h 11.1 km/h 85% 0 mm WeatherDisplay:10.37 W/m2 CLR
06:16 11.1 °C 8.6 °C 1025.3 hPa SE 11.1 km/h 11.1 km/h 85% 0 mm WeatherDisplay:10.37 W/m2 CLR
06:21 11.1 °C 8.8 °C 1025.3 hPa SE 11.1 km/h 11.1 km/h 86% 0 mm WeatherDisplay:10.37 W/m2 CLR
06:26 10.9 °C 8.7 °C 1025.3 hPa SE 11.1 km/h 11.1 km/h 86% 0 mm WeatherDisplay:10.37 W/m2 CLR
06:31 10.8 °C 8.6 °C 1025.3 hPa SE 11.1 km/h 11.1 km/h 86% 0 mm WeatherDisplay:10.37 W/m2 CLR
06:36 10.7 °C 8.6 °C 1025.6 hPa SE 11.1 km/h 11.1 km/h 87% 0 mm WeatherDisplay:10.37 W/m2 CLR
06:41 10.6 °C 8.5 °C 1025.6 hPa SE 11.1 km/h 11.1 km/h 87% 0 mm WeatherDisplay:10.37 W/m2 CLR
06:46 10.4 °C 8.4 °C 1025.6 hPa SE 11.1 km/h 11.1 km/h 87% 0 mm WeatherDisplay:10.37 W/m2 CLR
06:51 10.4 °C 8.5 °C 1025.6 hPa SE 11.1 km/h 11.1 km/h 88% 0 mm WeatherDisplay:10.37 W/m2 CLR
06:56 10.3 °C 8.4 °C 1025.6 hPa SE 11.1 km/h 11.1 km/h 88% 0 mm WeatherDisplay:10.37 W/m2 CLR
07:02 10.3 °C 8.4 °C 1025.6 hPa ESE 11.1 km/h 11.1 km/h 88% 0 mm WeatherDisplay:10.37 W/m2 BKN
07:07 10.3 °C 8.4 °C 1025.6 hPa ESE 3.7 km/h 3.7 km/h 88% 0 mm WeatherDisplay:10.37 W/m2 BKN
07:12 10.3 °C 8.4 °C 1025.6 hPa ESE 3.7 km/h 3.7 km/h 88% 0 mm WeatherDisplay:10.37 W/m2 BKN
07:17 10.3 °C 8.4 °C 1025.6 hPa ESE 3.7 km/h 3.7 km/h 88% 0 mm WeatherDisplay:10.37 W/m2 BKN
07:22 10.3 °C 8.4 °C 1025.6 hPa ESE 3.7 km/h 3.7 km/h 88% 0 mm WeatherDisplay:10.37 W/m2 BKN
07:27 10.3 °C 8.4 °C 1025.6 hPa ESE 3.7 km/h 3.7 km/h 88% 0 mm WeatherDisplay:10.37 W/m2 BKN
07:32 10.3 °C 8.4 °C 1025.6 hPa ESE 3.7 km/h 3.7 km/h 88% 0 mm WeatherDisplay:10.37 W/m2 BKN
07:37 10.3 °C 8.4 °C 1025.6 hPa ESE 3.7 km/h 3.7 km/h 88% 0 mm WeatherDisplay:10.37 W/m2 BKN
07:42 10.4 °C 8.3 °C 1025.6 hPa ESE 3.7 km/h 3.7 km/h 87% 0 mm WeatherDisplay:10.37 W/m2 BKN
07:47 10.4 °C 8.3 °C 1025.6 hPa ESE 3.7 km/h 3.7 km/h 87% 0 mm WeatherDisplay:10.37 W/m2 BKN
07:52 10.4 °C 8.4 °C 1026 hPa ESE 3.7 km/h 3.7 km/h 87% 0 mm WeatherDisplay:10.37 W/m2 BKN
07:57 10.5 °C 8.4 °C 1026 hPa ESE 3.7 km/h 3.7 km/h 87% 0 mm WeatherDisplay:10.37 W/m2 BKN
08:02 10.5 °C 8.4 °C 1026 hPa ESE 3.7 km/h 3.7 km/h 87% 0 mm WeatherDisplay:10.37 W/m2 BKN
08:07 10.5 °C 8.4 °C 1026 hPa ESE 3.7 km/h 3.7 km/h 87% 0 mm WeatherDisplay:10.37 W/m2 BKN
08:12 10.6 °C 8.5 °C 1026 hPa ESE 3.7 km/h 3.7 km/h 87% 0 mm WeatherDisplay:10.37 W/m2 BKN
08:17 10.6 °C 8.5 °C 1026 hPa ESE 3.7 km/h 3.7 km/h 87% 0 mm WeatherDisplay:10.37 W/m2 BKN
08:22 10.6 °C 8.6 °C 1026 hPa ESE 3.7 km/h 3.7 km/h 87% 0 mm WeatherDisplay:10.37 W/m2 BKN
08:27 10.6 °C 8.6 °C 1026 hPa ESE 3.7 km/h 3.7 km/h 87% 0 mm WeatherDisplay:10.37 W/m2 BKN
08:32 10.7 °C 8.6 °C 1026.3 hPa ESE 3.7 km/h 3.7 km/h 87% 0 mm WeatherDisplay:10.37 W/m2 BKN
08:37 10.7 °C 8.8 °C 1026.3 hPa ESE 3.7 km/h 3.7 km/h 88% 0 mm WeatherDisplay:10.37 W/m2 BKN
08:42 10.8 °C 8.9 °C 1026.3 hPa ESE 3.7 km/h 3.7 km/h 88% 0 mm WeatherDisplay:10.37 W/m2 BKN
08:47 10.8 °C 8.9 °C 1026.3 hPa ESE 3.7 km/h 3.7 km/h 88% 0 mm WeatherDisplay:10.37 W/m2 BKN
08:52 10.9 °C 9.1 °C 1026.3 hPa ESE 3.7 km/h 3.7 km/h 88% 0 mm WeatherDisplay:10.37 W/m2 BKN
08:57 11.1 °C 9.2 °C 1026.3 hPa ESE 3.7 km/h 3.7 km/h 88% 0 mm WeatherDisplay:10.37 W/m2 BKN
09:03 11.2 °C 9.1 °C 1026.6 hPa NNE 3.7 km/h 3.7 km/h 87% 0 mm WeatherDisplay:10.37 W/m2 BKN
09:08 11.4 °C 9.4 °C 1026.6 hPa NNE 3.7 km/h 3.7 km/h 88% 0 mm WeatherDisplay:10.37 W/m2 BKN
09:13 11.6 °C 9.5 °C 1026.6 hPa NNE 3.7 km/h 3.7 km/h 87% 0 mm WeatherDisplay:10.37 W/m2 BKN
09:18 11.8 °C 9.7 °C 1026.6 hPa NNE 3.7 km/h 3.7 km/h 87% 0 mm WeatherDisplay:10.37 W/m2 BKN
09:23 12.2 °C 9.9 °C 1026.6 hPa NNE 3.7 km/h 3.7 km/h 86% 0 mm WeatherDisplay:10.37 W/m2 BKN
09:28 12.6 °C 10.3 °C 1026.6 hPa NNE 3.7 km/h 3.7 km/h 86% 0 mm WeatherDisplay:10.37 W/m2 BKN
09:33 12.8 °C 10.2 °C 1027 hPa NNE 3.7 km/h 3.7 km/h 84% 0 mm WeatherDisplay:10.37 W/m2 BKN
09:38 13.3 °C 10.4 °C 1027 hPa NNE 3.7 km/h 3.7 km/h 83% 0 mm WeatherDisplay:10.37 W/m2 BKN
09:43 13.7 °C 10.3 °C 1027 hPa NNE 3.7 km/h 3.7 km/h 80% 0 mm WeatherDisplay:10.37 W/m2 BKN
09:48 14.3 °C 10.7 °C 1027 hPa NNE 3.7 km/h 3.7 km/h 79% 0 mm WeatherDisplay:10.37 W/m2 BKN
09:53 14.7 °C 10.9 °C 1027 hPa NNE 3.7 km/h 3.7 km/h 78% 0 mm WeatherDisplay:10.37 W/m2 BKN
09:58 15.1 °C 11.1 °C 1027 hPa NNE 3.7 km/h 3.7 km/h 77% 0 mm WeatherDisplay:10.37 W/m2 BKN
10:03 15.4 °C 11.2 °C 1027 hPa East 5.6 km/h 5.6 km/h 76% 0 mm WeatherDisplay:10.37 W/m2 BKN
10:05 15.6 °C 11.3 °C 1027 hPa East 5.6 km/h 5.6 km/h 76% 0 mm WeatherDisplay:10.37 W/m2 BKN
10:10 15.8 °C 11.3 °C 1027 hPa East 5.6 km/h 5.6 km/h 75% 0 mm WeatherDisplay:10.37 W/m2 BKN
10:15 16 °C 11.6 °C 1027 hPa East 5.6 km/h 5.6 km/h 75% 0 mm WeatherDisplay:10.37 W/m2 BKN
10:20 16.2 °C 11.8 °C 1027 hPa East 5.6 km/h 5.6 km/h 75% 0 mm WeatherDisplay:10.37 W/m2 BKN
10:25 16.5 °C 11.8 °C 1027 hPa East 5.6 km/h 5.6 km/h 74% 0 mm WeatherDisplay:10.37 W/m2 BKN
10:30 16.7 °C 12.1 °C 1027 hPa East 5.6 km/h 5.6 km/h 74% 0 mm WeatherDisplay:10.37 W/m2 BKN
10:35 17.1 °C 12.2 °C 1027 hPa East 5.6 km/h 5.6 km/h 73% 0 mm WeatherDisplay:10.37 W/m2 BKN
10:40 17.4 °C 12.3 °C 1027 hPa East 5.6 km/h 5.6 km/h 72% 0 mm WeatherDisplay:10.37 W/m2 BKN
10:45 17.9 °C 13.1 °C 1027 hPa East 5.6 km/h 5.6 km/h 73% 0 mm WeatherDisplay:10.37 W/m2 BKN
10:51 18.6 °C 13.4 °C 1027 hPa East 5.6 km/h 5.6 km/h 72% 0 mm WeatherDisplay:10.37 W/m2 BKN
10:56 19.2 °C 13.3 °C 1027 hPa East 5.6 km/h 5.6 km/h 69% 0 mm WeatherDisplay:10.37 W/m2 BKN
11:01 19.3 °C 13.4 °C 1027 hPa East 5.6 km/h 5.6 km/h 69% 0 mm WeatherDisplay:10.37 W/m2 BKN
11:06 19.4 °C 13.6 °C 1027 hPa East 9.3 km/h 9.3 km/h 69% 0 mm WeatherDisplay:10.37 W/m2 BKN
11:11 19.6 °C 14 °C 1027 hPa East 9.3 km/h 9.3 km/h 70% 0 mm WeatherDisplay:10.37 W/m2 BKN
11:16 19.9 °C 14.1 °C 1026.6 hPa East 9.3 km/h 9.3 km/h 69% 0 mm WeatherDisplay:10.37 W/m2 BKN
11:21 20.2 °C 13.9 °C 1026.6 hPa East 9.3 km/h 9.3 km/h 67% 0 mm WeatherDisplay:10.37 W/m2 BKN
11:26 20.5 °C 13.9 °C 1026.6 hPa East 9.3 km/h 9.3 km/h 66% 0 mm WeatherDisplay:10.37 W/m2 BKN
11:31 20.8 °C 14.7 °C 1027 hPa East 9.3 km/h 9.3 km/h 68% 0 mm WeatherDisplay:10.37 W/m2 BKN
11:36 21.1 °C 14.5 °C 1027 hPa East 9.3 km/h 9.3 km/h 66% 0 mm WeatherDisplay:10.37 W/m2 BKN
11:41 21.6 °C 14.2 °C 1026.6 hPa East 9.3 km/h 9.3 km/h 63% 0 mm WeatherDisplay:10.37 W/m2 BKN
11:46 21.9 °C 14.3 °C 1026.6 hPa East 9.3 km/h 9.3 km/h 62% 0 mm WeatherDisplay:10.37 W/m2 BKN
11:51 21.7 °C 14.1 °C 1026.6 hPa East 9.3 km/h 9.3 km/h 62% 0 mm WeatherDisplay:10.37 W/m2 BKN
11:52 21.7 °C 14.1 °C 1026.6 hPa East 9.3 km/h 9.3 km/h 62% 0 mm WeatherDisplay:10.37 W/m2 BKN
11:57 21.6 °C 14.3 °C 1026.6 hPa East 9.3 km/h 9.3 km/h 63% 0 mm WeatherDisplay:10.37 W/m2 BKN
12:02 21.6 °C 14.5 °C 1026.6 hPa East 9.3 km/h 9.3 km/h 64% 0 mm WeatherDisplay:10.37 W/m2 BKN
12:07 21.4 °C 14.1 °C 1026.6 hPa East 9.3 km/h 9.3 km/h 63% 0 mm WeatherDisplay:10.37 W/m2 BKN
12:12 21.4 °C 13.6 °C 1026.6 hPa ESE 11.1 km/h 11.1 km/h 61% 0 mm WeatherDisplay:10.37 W/m2 BKN
12:17 21.6 °C 13.9 °C 1026.6 hPa ESE 11.1 km/h 11.1 km/h 62% 0 mm WeatherDisplay:10.37 W/m2 BKN
12:22 21.7 °C 13.3 °C 1026.6 hPa ESE 11.1 km/h 11.1 km/h 59% 0 mm WeatherDisplay:10.37 W/m2 BKN
12:27 21.8 °C 14.2 °C 1026.6 hPa ESE 11.1 km/h 11.1 km/h 62% 0 mm WeatherDisplay:10.37 W/m2 BKN
12:32 21.8 °C 13.9 °C 1026.6 hPa ESE 11.1 km/h 11.1 km/h 61% 0 mm WeatherDisplay:10.37 W/m2 BKN
12:37 21.7 °C 13.1 °C 1026.6 hPa ESE 11.1 km/h 11.1 km/h 58% 0 mm WeatherDisplay:10.37 W/m2 BKN
12:42 21.7 °C 13.1 °C 1026.6 hPa ESE 11.1 km/h 11.1 km/h 58% 0 mm WeatherDisplay:10.37 W/m2 BKN
12:47 21.7 °C 13.3 °C 1026.6 hPa ESE 11.1 km/h 11.1 km/h 59% 0 mm WeatherDisplay:10.37 W/m2 BKN
12:52 21.7 °C 13.1 °C 1026.6 hPa ESE 11.1 km/h 11.1 km/h 58% 0 mm WeatherDisplay:10.37 W/m2 BKN
12:57 21.8 °C 13.4 °C 1026.6 hPa ESE 11.1 km/h 11.1 km/h 59% 0 mm WeatherDisplay:10.37 W/m2 BKN
13:02 21.8 °C 13.4 °C 1026.3 hPa ESE 11.1 km/h 11.1 km/h 59% 0 mm WeatherDisplay:10.37 W/m2 BKN
13:12 21.8 °C 13.2 °C 1026.3 hPa ESE 11.1 km/h 11.1 km/h 58% 0 mm WeatherDisplay:10.37 W/m2 BKN
13:17 21.9 °C 13.5 °C 1026.3 hPa ESE 11.1 km/h 11.1 km/h 59% 0 mm WeatherDisplay:10.37 W/m2 BKN
13:22 22 °C 13.1 °C 1026 hPa ESE 11.1 km/h 11.1 km/h 57% 0 mm WeatherDisplay:10.37 W/m2 BKN
13:27 22.1 °C 12.9 °C 1026 hPa ESE 11.1 km/h 11.1 km/h 56% 0 mm WeatherDisplay:10.37 W/m2 BKN
13:33 22.3 °C 13.1 °C 1026 hPa ESE 11.1 km/h 11.1 km/h 56% 0 mm WeatherDisplay:10.37 W/m2 BKN
13:38 22.4 °C 12.6 °C 1025.6 hPa ESE 11.1 km/h 11.1 km/h 54% 0 mm WeatherDisplay:10.37 W/m2 BKN
13:43 22.6 °C 13.1 °C 1025.6 hPa ESE 11.1 km/h 11.1 km/h 55% 0 mm WeatherDisplay:10.37 W/m2 BKN
13:48 22.8 °C 12.4 °C 1025.6 hPa ESE 11.1 km/h 11.1 km/h 52% 0 mm WeatherDisplay:10.37 W/m2 BKN
13:53 23 °C 12.3 °C 1025.6 hPa ESE 11.1 km/h 11.1 km/h 51% 0 mm WeatherDisplay:10.37 W/m2 BKN
13:58 23.1 °C 12.9 °C 1025.3 hPa ESE 11.1 km/h 11.1 km/h 53% 0 mm WeatherDisplay:10.37 W/m2 BKN
14:03 23.2 °C 12.8 °C 1025.3 hPa ESE 14.8 km/h 14.8 km/h 52% 0 mm WeatherDisplay:10.37 W/m2 BKN
14:08 23.3 °C 12.9 °C 1025.3 hPa ESE 14.8 km/h 14.8 km/h 52% 0 mm WeatherDisplay:10.37 W/m2 BKN
14:13 23.5 °C 12.8 °C 1025.3 hPa ESE 14.8 km/h 14.8 km/h 51% 0 mm WeatherDisplay:10.37 W/m2 BKN
14:18 23.5 °C 13.4 °C 1025.3 hPa ESE 14.8 km/h 14.8 km/h 53% 0 mm WeatherDisplay:10.37 W/m2 BKN
14:23 23.3 °C 13.2 °C 1025.3 hPa ESE 14.8 km/h 14.8 km/h 53% 0 mm WeatherDisplay:10.37 W/m2 BKN
14:28 23.1 °C 13 °C 1025.3 hPa ESE 14.8 km/h 14.8 km/h 53% 0 mm WeatherDisplay:10.37 W/m2 BKN
14:33 23.1 °C 13.2 °C 1024.9 hPa ESE 14.8 km/h 14.8 km/h 54% 0 mm WeatherDisplay:10.37 W/m2 BKN
14:38 23.1 °C 13.2 °C 1024.9 hPa ESE 14.8 km/h 14.8 km/h 54% 0 mm WeatherDisplay:10.37 W/m2 BKN
14:43 23.1 °C 13.2 °C 1024.9 hPa ESE 14.8 km/h 14.8 km/h 54% 0 mm WeatherDisplay:10.37 W/m2 BKN
14:48 23.1 °C 13.6 °C 1024.9 hPa ESE 14.8 km/h 14.8 km/h 55% 0 mm WeatherDisplay:10.37 W/m2 BKN
14:53 23.1 °C 13.2 °C 1024.9 hPa ESE 14.8 km/h 14.8 km/h 54% 0 mm WeatherDisplay:10.37 W/m2 BKN
14:58 23 °C 13.4 °C 1024.9 hPa ESE 14.8 km/h 14.8 km/h 55% 0 mm WeatherDisplay:10.37 W/m2 BKN
15:04 23 °C 14 °C 1024.9 hPa ESE 16.7 km/h 16.7 km/h 57% 0 mm WeatherDisplay:10.37 W/m2 BKN
15:09 23.1 °C 13.8 °C 1024.9 hPa ESE 16.7 km/h 16.7 km/h 56% 0 mm WeatherDisplay:10.37 W/m2 BKN
15:14 23.1 °C 12.9 °C 1024.9 hPa ESE 16.7 km/h 16.7 km/h 53% 0 mm WeatherDisplay:10.37 W/m2 BKN
15:19 22.9 °C 12.6 °C 1024.6 hPa ESE 16.7 km/h 16.7 km/h 52% 0 mm WeatherDisplay:10.37 W/m2 BKN
15:24 23 °C 12.9 °C 1024.6 hPa ESE 16.7 km/h 16.7 km/h 53% 0 mm WeatherDisplay:10.37 W/m2 BKN
15:29 23.1 °C 13 °C 1024.6 hPa ESE 16.7 km/h 16.7 km/h 53% 0 mm WeatherDisplay:10.37 W/m2 BKN
15:34 23.2 °C 13.9 °C 1024.6 hPa ESE 16.7 km/h 16.7 km/h 56% 0 mm WeatherDisplay:10.37 W/m2 BKN
15:39 23.2 °C 12.2 °C 1024.6 hPa ESE 16.7 km/h 16.7 km/h 50% 0 mm WeatherDisplay:10.37 W/m2 BKN
15:41 23.1 °C 12.7 °C 1024.6 hPa ESE 16.7 km/h 16.7 km/h 52% 0 mm WeatherDisplay:10.37 W/m2 BKN
15:46 23.2 °C 12.4 °C 1024.6 hPa ESE 16.7 km/h 16.7 km/h 51% 0 mm WeatherDisplay:10.37 W/m2 BKN
15:47 23.1 °C 12.4 °C 1024.6 hPa ESE 16.7 km/h 16.7 km/h 51% 0 mm WeatherDisplay:10.37 W/m2 BKN
15:52 23.2 °C 12.4 °C 1024.3 hPa ESE 16.7 km/h 16.7 km/h 51% 0 mm WeatherDisplay:10.37 W/m2 BKN
15:57 23.1 °C 12.7 °C 1024.6 hPa ESE 16.7 km/h 16.7 km/h 52% 0 mm WeatherDisplay:10.37 W/m2 BKN
16:02 23.1 °C 13.3 °C 1024.6 hPa ESE 16.7 km/h 16.7 km/h 54% 0 mm WeatherDisplay:10.37 W/m2 OVC
16:07 23.1 °C 12.7 °C 1024.6 hPa ESE 16.7 km/h 16.7 km/h 52% 0 mm WeatherDisplay:10.37 W/m2 OVC
16:12 23.1 °C 12.7 °C 1024.3 hPa ESE 16.7 km/h 16.7 km/h 52% 0 mm WeatherDisplay:10.37 W/m2 CLR
16:17 23 °C 12.6 °C 1024.3 hPa ESE 11.1 km/h 11.1 km/h 52% 0 mm WeatherDisplay:10.37 W/m2 CLR
16:22 22.9 °C 12.8 °C 1024.6 hPa ESE 11.1 km/h 11.1 km/h 53% 0 mm WeatherDisplay:10.37 W/m2 CLR
16:27 23 °C 12.6 °C 1024.6 hPa ESE 11.1 km/h 11.1 km/h 52% 0 mm WeatherDisplay:10.37 W/m2 CLR
16:32 23.1 °C 13.6 °C 1024.6 hPa ESE 11.1 km/h 11.1 km/h 55% 0 mm WeatherDisplay:10.37 W/m2 CLR
16:37 23.1 °C 12.4 °C 1024.6 hPa ESE 11.1 km/h 11.1 km/h 51% 0 mm WeatherDisplay:10.37 W/m2 CLR
16:48 23.2 °C 13.3 °C 1024.6 hPa ESE 11.1 km/h 11.1 km/h 54% 0 mm WeatherDisplay:10.37 W/m2 CLR
16:53 23.1 °C 13.3 °C 1024.6 hPa ESE 11.1 km/h 11.1 km/h 54% 0 mm WeatherDisplay:10.37 W/m2 CLR
16:58 23.1 °C 12.7 °C 1024.6 hPa ESE 11.1 km/h 11.1 km/h 52% 0 mm WeatherDisplay:10.37 W/m2 CLR
17:03 23.1 °C 13.5 °C 1024.6 hPa East 18.5 km/h 18.5 km/h 55% 0 mm WeatherDisplay:10.37 W/m2 BKN
17:08 22.9 °C 12.5 °C 1024.6 hPa East 18.5 km/h 18.5 km/h 52% 0 mm WeatherDisplay:10.37 W/m2 BKN
17:13 22.8 °C 12.2 °C 1024.6 hPa East 18.5 km/h 18.5 km/h 51% 0 mm WeatherDisplay:10.37 W/m2 BKN
17:18 22.8 °C 12.4 °C 1024.6 hPa East 18.5 km/h 18.5 km/h 52% 0 mm WeatherDisplay:10.37 W/m2 BKN
17:23 22.7 °C 12.6 °C 1024.6 hPa East 18.5 km/h 18.5 km/h 53% 0 mm WeatherDisplay:10.37 W/m2 BKN
17:28 22.5 °C 12.7 °C 1024.6 hPa East 18.5 km/h 18.5 km/h 54% 0 mm WeatherDisplay:10.37 W/m2 BKN
17:33 22.3 °C 12.8 °C 1024.6 hPa East 18.5 km/h 18.5 km/h 55% 0 mm WeatherDisplay:10.37 W/m2 BKN
17:38 22.2 °C 12.2 °C 1024.6 hPa East 18.5 km/h 18.5 km/h 53% 0 mm WeatherDisplay:10.37 W/m2 BKN
17:43 22.2 °C 12.4 °C 1024.6 hPa East 18.5 km/h 18.5 km/h 54% 0 mm WeatherDisplay:10.37 W/m2 BKN
17:48 22 °C 12.8 °C 1024.6 hPa East 18.5 km/h 18.5 km/h 56% 0 mm WeatherDisplay:10.37 W/m2 BKN
17:53 21.9 °C 13 °C 1024.9 hPa East 18.5 km/h 18.5 km/h 57% 0 mm WeatherDisplay:10.37 W/m2 BKN
17:58 21.7 °C 13.3 °C 1024.9 hPa East 18.5 km/h 18.5 km/h 59% 0 mm WeatherDisplay:10.37 W/m2 BKN
18:03 21.4 °C 13.1 °C 1024.9 hPa East 9.3 km/h 9.3 km/h 59% 0 mm WeatherDisplay:10.37 W/m2 BKN
18:08 21.3 °C 12.7 °C 1024.9 hPa East 9.3 km/h 9.3 km/h 58% 0 mm WeatherDisplay:10.37 W/m2 BKN
18:13 21.2 °C 13.1 °C 1024.9 hPa East 9.3 km/h 9.3 km/h 60% 0 mm WeatherDisplay:10.37 W/m2 BKN
18:18 20.9 °C 13.3 °C 1024.9 hPa East 9.3 km/h 9.3 km/h 62% 0 mm WeatherDisplay:10.37 W/m2 BKN
18:24 20.7 °C 13.4 °C 1024.9 hPa East 9.3 km/h 9.3 km/h 63% 0 mm WeatherDisplay:10.37 W/m2 BKN
18:29 20.4 °C 13.4 °C 1024.9 hPa East 9.3 km/h 9.3 km/h 64% 0 mm WeatherDisplay:10.37 W/m2 BKN
18:34 20.3 °C 13.2 °C 1024.9 hPa East 9.3 km/h 9.3 km/h 64% 0 mm WeatherDisplay:10.37 W/m2 BKN
18:39 20.1 °C 13.3 °C 1024.9 hPa East 9.3 km/h 9.3 km/h 65% 0 mm WeatherDisplay:10.37 W/m2 BKN
18:44 19.9 °C 13.4 °C 1024.9 hPa East 9.3 km/h 9.3 km/h 66% 0 mm WeatherDisplay:10.37 W/m2 BKN
18:49 19.7 °C 13.2 °C 1024.9 hPa East 9.3 km/h 9.3 km/h 66% 0 mm WeatherDisplay:10.37 W/m2 BKN
18:54 19.6 °C 13.3 °C 1024.9 hPa East 9.3 km/h 9.3 km/h 67% 0 mm WeatherDisplay:10.37 W/m2 BKN
18:59 19.4 °C 13.4 °C 1024.9 hPa East 9.3 km/h 9.3 km/h 68% 0 mm WeatherDisplay:10.37 W/m2 BKN
19:04 19.3 °C 13.1 °C 1024.9 hPa East 9.3 km/h 9.3 km/h 67% 0 mm WeatherDisplay:10.37 W/m2 BKN
19:09 19.2 °C 13.2 °C 1024.9 hPa East 9.3 km/h 9.3 km/h 68% 0 mm WeatherDisplay:10.37 W/m2 BKN
19:14 19.1 °C 13.2 °C 1024.9 hPa East 9.3 km/h 9.3 km/h 69% 0 mm WeatherDisplay:10.37 W/m2 BKN
19:19 18.8 °C 13 °C 1024.9 hPa East 9.3 km/h 9.3 km/h 69% 0 mm WeatherDisplay:10.37 W/m2 BKN
19:24 18.7 °C 13.1 °C 1024.9 hPa East 9.3 km/h 9.3 km/h 70% 0 mm WeatherDisplay:10.37 W/m2 BKN
19:29 18.6 °C 13 °C 1024.9 hPa East 9.3 km/h 9.3 km/h 70% 0 mm WeatherDisplay:10.37 W/m2 BKN
19:34 18.4 °C 13.1 °C 1024.9 hPa East 9.3 km/h 9.3 km/h 71% 0 mm WeatherDisplay:10.37 W/m2 BKN
19:39 18.3 °C 12.9 °C 1025.3 hPa East 9.3 km/h 9.3 km/h 71% 0 mm WeatherDisplay:10.37 W/m2 BKN
19:44 18.1 °C 12.8 °C 1025.3 hPa East 9.3 km/h 9.3 km/h 71% 0 mm WeatherDisplay:10.37 W/m2 BKN
19:49 17.9 °C 12.4 °C 1025.3 hPa East 9.3 km/h 9.3 km/h 70% 0 mm WeatherDisplay:10.37 W/m2 BKN
19:55 17.9 °C 12.4 °C 1025.3 hPa East 9.3 km/h 9.3 km/h 70% 0 mm WeatherDisplay:10.37 W/m2 BKN
20:00 17.9 °C 12.4 °C 1025.3 hPa East 9.3 km/h 9.3 km/h 70% 0 mm WeatherDisplay:10.37 W/m2 BKN
20:05 17.9 °C 12.4 °C 1025.3 hPa East 13 km/h 13 km/h 70% 0 mm WeatherDisplay:10.37 W/m2 BKN
20:10 17.9 °C 12.3 °C 1025.3 hPa East 13 km/h 13 km/h 70% 0 mm WeatherDisplay:10.37 W/m2 BKN
20:15 17.8 °C 12.3 °C 1025.3 hPa East 12.9 km/h 12.9 km/h 70% 0 mm WeatherDisplay:10.37 W/m2 BKN
20:20 17.8 °C 12.4 °C 1025.3 hPa East 12.9 km/h 12.9 km/h 71% 0 mm WeatherDisplay:10.37 W/m2 BKN
20:25 17.7 °C 12.2 °C 1025.6 hPa East 13 km/h 13 km/h 70% 0 mm WeatherDisplay:10.37 W/m2 BKN
20:30 17.6 °C 12.3 °C 1025.6 hPa East 13 km/h 13 km/h 71% 0 mm WeatherDisplay:10.37 W/m2 BKN
20:35 17.6 °C 12.2 °C 1025.3 hPa East 12.9 km/h 12.9 km/h 71% 0 mm WeatherDisplay:10.37 W/m2 BKN
20:40 17.4 °C 12.3 °C 1025.3 hPa East 12.9 km/h 12.9 km/h 72% 0 mm WeatherDisplay:10.37 W/m2 BKN
20:45 17.4 °C 12.1 °C 1025.3 hPa East 12.9 km/h 12.9 km/h 71% 0 mm WeatherDisplay:10.37 W/m2 BKN
20:50 17.4 °C 11.9 °C 1025.3 hPa East 12.9 km/h 12.9 km/h 70% 0 mm WeatherDisplay:10.37 W/m2 BKN
20:55 17.4 °C 12.1 °C 1025.3 hPa East 13 km/h 13 km/h 71% 0 mm WeatherDisplay:10.37 W/m2 BKN
21:00 17.4 °C 12.1 °C 1025.3 hPa East 12.9 km/h 12.9 km/h 71% 0 mm WeatherDisplay:10.37 W/m2 BKN
21:05 17.3 °C 12 °C 1025.3 hPa East 11.3 km/h 12.9 km/h 71% 0 mm WeatherDisplay:10.37 W/m2 BKN
21:10 17.3 °C 12 °C 1025.3 hPa East 11.3 km/h 11.3 km/h 71% 0 mm WeatherDisplay:10.37 W/m2 BKN
21:15 17.2 °C 11.9 °C 1025.3 hPa East 11.3 km/h 11.3 km/h 71% 0 mm WeatherDisplay:10.37 W/m2 BKN
21:20 17.2 °C 11.9 °C 1025.3 hPa East 11.3 km/h 11.3 km/h 71% 0 mm WeatherDisplay:10.37 W/m2 BKN
21:25 17.1 °C 11.8 °C 1025.3 hPa East 11.1 km/h 11.1 km/h 71% 0 mm WeatherDisplay:10.37 W/m2 BKN
21:30 17.1 °C 11.9 °C 1025.3 hPa East 11.1 km/h 11.1 km/h 72% 0 mm WeatherDisplay:10.37 W/m2 BKN
21:35 17 °C 11.9 °C 1025.3 hPa East 11.3 km/h 11.3 km/h 72% 0 mm WeatherDisplay:10.37 W/m2 BKN
21:40 16.9 °C 12.1 °C 1025.3 hPa East 11.3 km/h 11.3 km/h 73% 0 mm WeatherDisplay:10.37 W/m2 BKN
21:45 16.9 °C 12 °C 1025.3 hPa East 11.3 km/h 11.3 km/h 73% 0 mm WeatherDisplay:10.37 W/m2 BKN
21:50 16.8 °C 11.9 °C 1025.3 hPa East 11.1 km/h 11.1 km/h 73% 0 mm WeatherDisplay:10.37 W/m2 BKN
21:55 16.9 °C 12 °C 1025.3 hPa East 11.1 km/h 11.1 km/h 73% 0 mm WeatherDisplay:10.37 W/m2 BKN
22:00 16.9 °C 12.1 °C 1025.6 hPa East 11.3 km/h 11.3 km/h 73% 0 mm WeatherDisplay:10.37 W/m2 BKN
22:05 16.9 °C 12.2 °C 1025.6 hPa East 7.4 km/h 7.4 km/h 74% 0 mm WeatherDisplay:10.37 W/m2 BKN
22:10 16.8 °C 12.2 °C 1026 hPa East 8 km/h 8 km/h 74% 0 mm WeatherDisplay:10.37 W/m2 BKN
22:15 16.7 °C 12.3 °C 1026 hPa East 7.4 km/h 7.4 km/h 75% 0 mm WeatherDisplay:10.37 W/m2 BKN
22:20 16.6 °C 12.2 °C 1026 hPa East 8 km/h 8 km/h 75% 0 mm WeatherDisplay:10.37 W/m2 BKN
22:25 16.5 °C 12.2 °C 1026 hPa East 8 km/h 8 km/h 76% 0 mm WeatherDisplay:10.37 W/m2 BKN
22:30 16.4 °C 12.3 °C 1026 hPa East 8 km/h 8 km/h 77% 0 mm WeatherDisplay:10.37 W/m2 BKN
22:35 16.3 °C 12.1 °C 1026 hPa East 8 km/h 8 km/h 76% 0 mm WeatherDisplay:10.37 W/m2 BKN
22:40 16.3 °C 12.2 °C 1026 hPa East 8 km/h 8 km/h 77% 0 mm WeatherDisplay:10.37 W/m2 BKN
22:45 16.2 °C 12.2 °C 1026 hPa East 8 km/h 8 km/h 77% 0 mm WeatherDisplay:10.37 W/m2 BKN
22:50 16.1 °C 12.1 °C 1026 hPa East 8 km/h 8 km/h 77% 0 mm WeatherDisplay:10.37 W/m2 BKN
22:55 16 °C 11.9 °C 1026 hPa East 7.4 km/h 7.4 km/h 77% 0 mm WeatherDisplay:10.37 W/m2 BKN
23:00 15.9 °C 12.1 °C 1026 hPa East 8 km/h 8 km/h 78% 0 mm WeatherDisplay:10.37 W/m2 BKN
23:05 15.9 °C 12.1 °C 1026 hPa East 8 km/h 8 km/h 78% 0 mm WeatherDisplay:10.37 W/m2 BKN
23:10 15.8 °C 12 °C 1026 hPa East 8 km/h 8 km/h 78% 0 mm WeatherDisplay:10.37 W/m2 BKN
23:16 15.8 °C 12.2 °C 1026 hPa East 7.4 km/h 7.4 km/h 79% 0 mm WeatherDisplay:10.37 W/m2 BKN
23:21 15.7 °C 12.1 °C 1026 hPa East 7.4 km/h 7.4 km/h 79% 0 mm WeatherDisplay:10.37 W/m2 BKN
23:23 15.7 °C 12.1 °C 1026 hPa East 7.4 km/h 7.4 km/h 79% 0 mm WeatherDisplay:10.37 W/m2 BKN
23:27 15.7 °C 12.2 °C 1026 hPa East 7.4 km/h 7.4 km/h 80% 0 mm WeatherDisplay:10.37 W/m2 BKN
23:28 15.6 °C 12.2 °C 1026 hPa East 7.4 km/h 7.4 km/h 80% 0 mm WeatherDisplay:10.37 W/m2 BKN
23:31 15.6 °C 12.1 °C 1026 hPa East 7.4 km/h 7.4 km/h 80% 0 mm WeatherDisplay:10.37 W/m2 BKN
23:33 15.6 °C 12.1 °C 1026 hPa East 7.4 km/h 7.4 km/h 80% 0 mm WeatherDisplay:10.37 W/m2 BKN
23:38 15.5 °C 12.1 °C 1026 hPa East 7.4 km/h 7.4 km/h 80% 0 mm WeatherDisplay:10.37 W/m2 BKN
23:43 15.4 °C 12 °C 1026 hPa East 7.4 km/h 7.4 km/h 80% 0 mm WeatherDisplay:10.37 W/m2 BKN
23:48 15.4 °C 12.2 °C 1026 hPa East 7.4 km/h 7.4 km/h 81% 0 mm WeatherDisplay:10.37 W/m2 BKN
23:53 15.4 °C 12.2 °C 1026 hPa East 7.4 km/h 7.4 km/h 81% 0 mm WeatherDisplay:10.37 W/m2 BKN
23:58 15.3 °C 12.1 °C 1026 hPa East 7.4 km/h 7.4 km/h 81% 0 mm WeatherDisplay:10.37 W/m2 BKN
Piedmont Bend
Compliments of Weather Underground - 4 mb